Goodland, KS

5:25 AM MDT on April 30, 2017 (GMT -0600)
Renner-Goodland Municipal

Weather History for KGLD - March, 2013

Change the Weather History Date:

Monday, March 25, 2013

  Actual Average Record
Temperature  
Mean Temperature 13 °F 43 °F  
Max Temperature 25 °F 57 °F 85 °F (1907)
Min Temperature 1 °F 29 °F -6 °F (1965)
Degree Days  
Heating Degree Days 52 22  
Month to date heating degree days 713 632  
Since 1 July heating degree days 5000 5049  
Cooling Degree Days 0 0  
Month to date cooling degree days 0 0  
Year to date cooling degree days 0 0  
Moisture  
Dew Point 6 °F    
Average Humidity 75    
Maximum Humidity 87    
Minimum Humidity 62    
Precipitation  
Precipitation 0.00 in 0.04 in 0.50 in (1959)
Month to date precipitation 1.34 0.81  
Year to date precipitation 2.19 1.68  
Snow  
Snow 0.00 in 0.30 in - ()
Month to date snowfall 19.8 5.3  
Since 1 July snowfall 43.0 29.3  
Snow Depth 10.00 in    
Sea Level Pressure  
Sea Level Pressure 30.45 in    
Wind  
Wind Speed 12 mph (WNW)    
Max Wind Speed 20 mph    
Max Gust Speed 22 mph    
Visibility 10 miles    
Events      
T = Trace of Precipitation, MM = Missing Value Source: NWS Daily Summary

Daily Weather History Graph

Daily Weather History Graph

Search for Another Location

Airport or City:

Trip Planner

Search our weather history database for the weather conditions in past years. The results will help you decide how hot, cold, wet, or windy it might be!

Date:

Astronomy

Mar. 25, 2013 Rise Set
Actual Time 6:41 AM MDT 7:04 PM MDT
Civil Twilight 6:14 AM MDT 7:30 PM MDT
Nautical Twilight 5:43 AM MDT 8:02 PM MDT
Astronomical Twilight 5:11 AM MDT 8:34 PM MDT
Moon 5:38 PM MDT (3/25) 5:25 AM MDT (3/25)
Length of Visible Light 13h 16m
Length of Day
12h 22m
Waxing Gibbous, 97% of the Moon is Illuminated
Mar 25
Waxing Gibbous
Mar 27
Full
Apr 2
Last Quarter
Apr 10
New
Apr 18
First Quarter

Hourly Weather History & Observations

Time (MDT) Temp. Windchill Dew Point Humidity Pressure Visibility Wind Dir Wind Speed Gust Speed Precip Events Conditions
12:53 AM 7.0 °F -9.8 °F 1.0 °F 77% 30.39 in 10.0 mi NW 13.8 mph - N/A   Clear
1:53 AM 3.9 °F -13.7 °F -0.9 °F 80% 30.40 in 10.0 mi NW 13.8 mph - N/A   Clear
2:53 AM 3.9 °F -13.0 °F -0.9 °F 80% 30.40 in 10.0 mi WNW 12.7 mph - N/A   Clear
3:53 AM 3.0 °F -14.8 °F -2.0 °F 80% 30.40 in 10.0 mi NW 13.8 mph - N/A   Clear
4:53 AM 3.0 °F -13.3 °F -2.0 °F 80% 30.41 in 10.0 mi WNW 11.5 mph - N/A   Clear
5:53 AM 1.9 °F -15.5 °F -2.9 °F 80% 30.42 in 10.0 mi NW 12.7 mph - N/A   Clear
6:53 AM 3.0 °F -14.1 °F -2.0 °F 80% 30.45 in 10.0 mi WNW 12.7 mph - N/A   Clear
7:53 AM 3.9 °F -13.7 °F -0.9 °F 80% 30.45 in 10.0 mi WNW 13.8 mph - N/A   Clear
8:53 AM 8.1 °F -9.0 °F 1.9 °F 76% 30.47 in 10.0 mi WNW 15.0 mph - N/A   Clear
9:53 AM 10.9 °F -4.1 °F 5.0 °F 77% 30.49 in 10.0 mi NW 12.7 mph - N/A   Clear
10:53 AM 15.1 °F 1.8 °F 8.1 °F 74% 30.50 in 10.0 mi NW 11.5 mph - N/A   Clear
11:53 AM 18.0 °F 4.8 °F 10.0 °F 71% 30.49 in 10.0 mi NW 12.7 mph - N/A   Clear
12:53 PM 21.0 °F 7.1 °F 12.0 °F 68% 30.47 in 10.0 mi NW 16.1 mph - N/A   Clear
1:53 PM 21.9 °F 8.2 °F 12.0 °F 66% 30.46 in 10.0 mi NW 16.1 mph - N/A   Clear
2:53 PM 23.0 °F 10.6 °F 12.9 °F 65% 30.45 in 10.0 mi NW 13.8 mph - N/A   Clear
3:53 PM 24.1 °F 11.5 °F 14.0 °F 65% 30.43 in 10.0 mi NNW 15.0 mph - N/A   Clear
4:53 PM 24.1 °F 15.2 °F 15.1 °F 69% 30.43 in 10.0 mi NW 8.1 mph - N/A   Clear
5:53 PM 21.9 °F 12.5 °F 15.1 °F 75% 30.44 in 10.0 mi West 8.1 mph - N/A   Clear
6:53 PM 19.9 °F 11.1 °F 12.9 °F 74% 30.44 in 10.0 mi West 6.9 mph - N/A   Clear
7:53 PM 16.0 °F 4.4 °F 10.9 °F 81% 30.45 in 10.0 mi West 9.2 mph - N/A   Clear
8:53 PM 15.1 °F 2.5 °F 8.1 °F 74% 30.45 in 10.0 mi West 10.4 mph - N/A   Clear
9:53 PM 10.0 °F -1.9 °F 3.9 °F 76% 30.47 in 10.0 mi West 8.1 mph - N/A   Clear
10:53 PM 9.0 °F -4.2 °F 3.0 °F 77% 30.46 in 10.0 mi WSW 9.2 mph - N/A   Clear
11:53 PM 9.0 °F -5.9 °F 1.9 °F 73% 30.45 in 10.0 mi WSW 11.5 mph - N/A   Clear